Zurück zum Katalog

ARIANE 5 DEB

SYLDA

AktivHEO
NORAD 42817·DEBRIS·🇫🇷 France

Gestartet Jun 28, 2017 von Guiana Space Centre

Loading…

Nächste Überflüge (nächste 24 Stunden)

TLE

AktuellSource: Space-Track

Epoche: Sep 14, 2026, 13:40 UTC

1 42817U 17040D   26257.57003702  .00175988  00000-0  49322-2 0  9990
2 42817   2.8277 245.5359 5454199 159.8980 234.4165  4.98028140115109

Verfolge ARIANE 5 DEB in Echtzeit mit AllMySat

Download on the App Store